Location: Sears
(37.7625°N, 100.1060°W)
Time: 04:18:25
(UTC+00:00)

X-37B - Pass Details

Date: 06 August 2021
Orbit: 381 x 393 km, 45.0° (Epoch: 29 August)

Event Time Altitude Azimuth Distance (km) Brightness Sun altitude
Exits shadow 11:10:31 - 295° (WNW) 2,278 4.1 -7.6°
Rises 11:10:35 0° 295° (WNW) 2,250 4.1 -7.6°
Reaches altitude 10° 11:12:57 10° 312° (NW) 1,397 3.2 -7.2°
Maximum altitude 11:15:28 22° 5° (N) 907 2.9 -6.8°
Drops below altitude 10° 11:17:59 10° 59° (ENE) 1,398 5.2 -6.3°
Sets 11:20:21 0° 75° (ENE) 2,251 6.6 -5.9°
